AI9F Weather Reports


time (UTC)temp
C
wind
direction
speed
KPH
gust
KPH
rain 1hr
cm
rain 24hr
cm
rain mn
cm
humidity
%
barometer
mb
20260905224521 35 135 0.0 0.0 0.00 0.00 0.00 45 1011.1
20260905224020 35 92 3.2 3.2 0.00 0.00 0.00 43 1011.1
20260905223518 36 149 1.6 1.6 0.00 0.00 0.00 44 1011.0
20260905223014 36 98 1.6 1.6 0.00 0.00 0.00 44 1011.1
20260905222513 36 141 1.6 1.6 0.00 0.00 0.00 43 1011.1
20260905222009 36 106 1.6 1.6 0.00 0.00 0.00 43 1011.1
20260905221505 36 110 1.6 1.6 0.00 0.00 0.00 41 1011.0
20260905221001 37 154 1.6 1.6 0.00 0.00 0.00 42 1010.9
20260905220457 37 159 1.6 1.6 0.00 0.00 0.00 42 1010.8
20260905215956 37 147 1.6 1.6 0.00 0.00 0.00 42 1011.0
20260905215452 37 162 3.2 1.6 0.00 0.00 0.00 42 1010.8
20260905214948 36 125 0.0 0.0 0.00 0.00 0.00 42 1011.0
20260905214444 36 152 1.6 3.2 0.00 0.00 0.00 42 1010.9
20260905213943 36 146 1.6 1.6 0.00 0.00 0.00 44 1011.0
20260905213440 36 158 1.6 1.6 0.00 0.00 0.00 44 1011.0
20260905212935 36 182 3.2 3.2 0.00 0.00 0.00 44 1011.2
20260905212430 36 163 3.2 3.2 0.00 0.00 0.00 43 1011.1
20260905211928 36 117 1.6 1.6 0.00 0.00 0.00 42 1010.9
20260905211425 35 150 1.6 1.6 0.00 0.00 0.00 46 1011.0
20260905210921 35 110 1.6 1.6 0.00 0.00 0.00 49 1011.1
20260905210421 34 143 1.6 1.6 0.00 0.00 0.00 49 1011.1
20260905205920 33 164 1.6 1.6 0.00 0.00 0.00 53 1011.2
20260905205415 33 187 3.2 3.2 0.00 0.00 0.00 54 1011.4
20260905204914 32 143 1.6 1.6 0.00 0.00 0.00 53 1011.3
20260905204410 32 175 1.6 1.6 0.00 0.00 0.00 52 1011.5
20260905203909 33 137 1.6 0.0 0.00 0.00 0.00 52 1011.4
20260905203404 33 128 1.6 1.6 0.00 0.00 0.00 51 1011.5
20260905202900 33 180 3.2 3.2 0.00 0.00 0.00 49 1011.6
20260905202355 34 155 1.6 3.2 0.00 0.00 0.00 49 1011.7
20260905201851 35 112 0.0 0.0 0.00 0.00 0.00 47 1011.7
20260905201346 35 155 3.2 3.2 0.00 0.00 0.00 46 1011.7
20260905200845 36 104 6.4 6.4 0.00 0.00 0.00 45 1011.7
20260905200342 36 189 3.2 3.2 0.00 0.00 0.00 43 1011.5
20260905195840 37 172 4.8 6.4 0.00 0.00 0.00 42 1011.7
20260905195335 37 185 3.2 4.8 0.00 0.00 0.00 40 1011.4
20260905194831 37 253 6.4 9.7 0.00 0.00 0.00 39 1011.7
20260905194330 38 173 3.2 3.2 0.00 0.00 0.00 37 1011.7
20260905193829 39 119 1.6 1.6 0.00 0.00 0.00 36 1011.7
20260905193324 38 139 3.2 3.2 0.00 0.00 0.00 40 1011.5
20260905192820 39 166 1.6 1.6 0.00 0.00 0.00 37 1011.6
20260905192316 39 324 8.0 12.9 0.00 0.00 0.00 36 1011.6
20260905191815 37 137 3.2 3.2 0.00 0.00 0.00 40 1011.7
20260905191314 37 241 6.4 9.7 0.00 0.00 0.00 39 1011.9
20260905190812 37 173 3.2 3.2 0.00 0.00 0.00 40 1011.7
20260905190307 38 195 3.2 3.2 0.00 0.00 0.00 38 1011.6
20260905185806 38 144 1.6 1.6 0.00 0.00 0.00 37 1011.9
20260905185305 40 229 8.0 9.7 0.00 0.00 0.00 36 1012.0
20260905184800 40 150 1.6 1.6 0.00 0.00 0.00 36 1012.0
20260905184259 38 101 1.6 3.2 0.00 0.00 0.00 36 1012.1
20260905183758 38 256 6.4 11.3 0.00 0.00 0.00 38 1012.2
20260905183254 38 159 1.6 1.6 0.00 0.00 0.00 37 1012.3
20260905182754 38 172 3.2 3.2 0.00 0.00 0.00 40 1012.4
20260905182253 38 115 1.6 1.6 0.00 0.00 0.00 39 1012.4
20260905181749 38 217 4.8 4.8 0.00 0.00 0.00 39 1012.6
20260905181249 38 221 8.0 11.3 0.00 0.00 0.00 38 1012.5
20260905180748 38 145 3.2 3.2 0.00 0.00 0.00 40 1012.7
20260905180243 38 256 4.8 4.8 0.00 0.00 0.00 40 1012.5
20260905175738 37 124 0.0 0.0 0.00 0.00 0.00 38 1012.7
20260905175233 38 214 8.0 11.3 0.00 0.00 0.00 38 1012.5
20260905174728 38 189 3.2 4.8 0.00 0.00 0.00 39 1012.4
20260905174224 38 114 0.0 0.0 0.00 0.00 0.00 44 1012.6
20260905173720 37 154 1.6 1.6 0.00 0.00 0.00 42 1012.8
20260905173216 38 254 8.0 11.3 0.00 0.00 0.00 39 1012.9
20260905172715 38 144 1.6 1.6 0.00 0.00 0.00 41 1013.0
20260905172215 37 119 1.6 3.2 0.00 0.00 0.00 42 1013.1
20260905171710 38 190 4.8 4.8 0.00 0.00 0.00 40 1012.9
20260905171206 37 193 6.4 9.7 0.00 0.00 0.00 41 1013.2
20260905170704 37 176 4.8 4.8 0.00 0.00 0.00 40 1013.1
20260905170204 37 156 1.6 1.6 0.00 0.00 0.00 40 1013.3
20260905165703 37 159 1.6 1.6 0.00 0.00 0.00 42 1013.2
20260905165159 37 137 0.0 0.0 0.00 0.00 0.00 43 1013.2
20260905164653 37 177 3.2 3.2 0.00 0.00 0.00 42 1013.4
20260905164153 37 169 3.2 3.2 0.00 0.00 0.00 42 1013.4
20260905163649 36 135 1.6 3.2 0.00 0.00 0.00 42 1013.2
20260905163145 36 153 1.6 1.6 0.00 0.00 0.00 42 1013.3
20260905162641 37 164 3.2 3.2 0.00 0.00 0.00 42 1013.3
20260905162141 36 166 3.2 3.2 0.00 0.00 0.00 45 1013.7
20260905161641 36 159 1.6 3.2 0.00 0.00 0.00 47 1013.6
20260905161139 36 163 1.6 1.6 0.00 0.00 0.00 46 1014.0
20260905160633 36 203 8.0 9.7 0.00 0.00 0.00 44 1013.7
20260905160133 35 152 1.6 1.6 0.00 0.00 0.00 45 1013.6
20260905155633 35 141 0.0 0.0 0.00 0.00 0.00 46 1013.6
20260905155131 35 209 1.6 3.2 0.00 0.00 0.00 48 1013.5
20260905154626 35 190 6.4 6.4 0.00 0.00 0.00 47 1013.7
20260905154121 35 140 1.6 1.6 0.00 0.00 0.00 49 1014.1
20260905153617 35 179 1.6 3.2 0.00 0.00 0.00 51 1013.9
20260905153112 35 145 1.6 1.6 0.00 0.00 0.00 48 1013.9
20260905152607 34 343 3.2 3.2 0.00 0.00 0.00 47 1013.9
20260905152102 34 167 1.6 3.2 0.00 0.00 0.00 48 1013.9
20260905151557 34 178 1.6 1.6 0.00 0.00 0.00 50 1013.7
20260905151052 33 145 1.6 1.6 0.00 0.00 0.00 53 1013.8
20260905150547 33 184 3.2 3.2 0.00 0.00 0.00 54 1013.8
20260905150045 33 187 1.6 1.6 0.00 0.00 0.00 56 1013.7
20260905145539 32 158 1.6 1.6 0.00 0.00 0.00 56 1013.7
20260905145038 32 175 3.2 3.2 0.00 0.00 0.00 62 1013.7
20260905144533 32 148 1.6 1.6 0.00 0.00 0.00 60 1013.9
20260905144032 32 185 1.6 1.6 0.00 0.00 0.00 63 1013.7
20260905143531 31 184 0.0 0.0 0.00 0.00 0.00 60 1013.8
20260905143027 31 165 1.6 1.6 0.00 0.00 0.00 62 1013.9
20260905142525 31 130 1.6 1.6 0.00 0.00 0.00 63 1013.9
20260905142021 31 162 1.6 1.6 0.00 0.00 0.00 65 1014.0
20260905141515 31 161 1.6 1.6 0.00 0.00 0.00 67 1013.8
20260905141012 30 161 1.6 1.6 0.00 0.00 0.00 67 1014.0
20260905140506 30 162 1.6 1.6 0.00 0.00 0.00 67 1014.0
20260905140005 30 161 1.6 1.6 0.00 0.00 0.00 67 1014.2
20260905135501 30 161 1.6 1.6 0.00 0.00 0.00 68 1014.1
20260905134956 30 161 0.0 0.0 0.00 0.00 0.00 69 1014.1
20260905134455 29 161 0.0 0.0 0.00 0.00 0.00 71 1014.2
20260905133955 29 161 1.6 1.6 0.00 0.00 0.00 72 1014.3
20260905133450 29 161 0.0 0.0 0.00 0.00 0.00 71 1014.1
20260905132949 28 161 1.6 1.6 0.00 0.00 0.00 71 1014.1
20260905132444 28 161 1.6 1.6 0.00 0.00 0.00 72 1014.1
20260905131939 28 161 1.6 1.6 0.00 0.00 0.00 74 1014.3
20260905131436 27 161 0.0 0.0 0.00 0.00 0.00 75 1014.4
20260905130930 27 161 0.0 0.0 0.00 0.00 0.00 75 1014.1
20260905130430 27 161 0.0 0.0 0.00 0.00 0.00 76 1014.3
20260905125929 27 161 0.0 0.0 0.00 0.00 0.00 78 1014.4
20260905125424 26 161 0.0 0.0 0.00 0.00 0.00 82 1014.1
20260905124920 25 161 0.0 0.0 0.00 0.00 0.00 83 1014.1
20260905124416 25 161 0.0 0.0 0.00 0.00 0.00 85 1014.1
20260905123916 24 161 0.0 0.0 0.00 0.00 0.00 87 1014.1
20260905123413 24 161 0.0 0.0 0.00 0.00 0.00 88 1014.1
20260905122908 24 161 0.0 0.0 0.00 0.00 0.00 89 1013.9
20260905122407 23 161 0.0 0.0 0.00 0.00 0.00 89 1013.8
20260905121903 23 161 0.0 0.0 0.00 0.00 0.00 89 1014.0
20260905121359 23 161 0.0 0.0 0.00 0.00 0.00 89 1013.9
20260905120858 23 161 0.0 0.0 0.00 0.00 0.00 89 1013.9
20260905120358 23 160 1.6 0.0 0.00 0.00 0.00 89 1013.8
20260905115853 23 160 0.0 0.0 0.00 0.00 0.00 89 1013.8
20260905115352 23 160 0.0 0.0 0.00 0.00 0.00 89 1013.8
20260905114847 23 160 0.0 0.0 0.00 0.00 0.00 89 1013.6
20260905114346 23 160 0.0 0.0 0.00 0.00 0.00 90 1013.7
20260905113846 23 160 1.6 1.6 0.00 0.00 0.00 90 1013.7
20260905113341 23 160 0.0 0.0 0.00 0.00 0.00 90 1013.7
20260905112836 23 160 0.0 0.0 0.00 0.00 0.00 91 1013.8
20260905112332 23 160 0.0 0.0 0.00 0.00 0.00 91 1013.7
20260905111827 23 160 0.0 0.0 0.00 0.00 0.00 90 1013.5
20260905111327 23 160 0.0 0.0 0.00 0.00 0.00 89 1013.6
20260905110826 23 160 0.0 0.0 0.00 0.00 0.00 88 1013.6
20260905110326 23 160 0.0 0.0 0.00 0.00 0.00 87 1013.5
20260905105822 24 160 0.0 0.0 0.00 0.00 0.00 85 1013.6
20260905105321 25 160 0.0 0.0 0.00 0.00 0.00 83 1013.4
20260905104815 25 160 0.0 0.0 0.00 0.00 0.00 81 1013.4
20260905104312 25 160 0.0 0.0 0.00 0.00 0.00 80 1013.5
20260905103811 25 160 1.6 1.6 0.00 0.00 0.00 80 1013.6
20260905103306 25 159 0.0 0.0 0.00 0.00 0.00 81 1013.4
20260905102802 24 159 0.0 0.0 0.00 0.00 0.00 83 1013.4
20260905102259 23 193 0.0 1.6 0.00 0.00 0.00 87 1013.5
20260905101758 23 144 0.0 0.0 0.00 0.00 0.00 86 1013.5
20260905101257 24 144 0.0 0.0 0.00 0.00 0.00 86 1013.4
20260905100752 24 144 0.0 0.0 0.00 0.00 0.00 86 1013.6
20260905100248 23 144 0.0 0.0 0.00 0.00 0.00 86 1013.4
20260905095747 23 144 0.0 0.0 0.00 0.00 0.00 86 1013.3
20260905095247 24 144 0.0 0.0 0.00 0.00 0.00 86 1013.3
20260905094741 24 144 0.0 0.0 0.00 0.00 0.00 85 1013.3
20260905094237 25 144 0.0 0.0 0.00 0.00 0.00 83 1013.4
20260905093736 25 144 0.0 0.0 0.00 0.00 0.00 82 1013.3
20260905093232 25 144 0.0 0.0 0.00 0.00 0.00 81 1013.4
20260905092728 25 144 0.0 0.0 0.00 0.00 0.00 79 1013.1
20260905092223 25 144 0.0 0.0 0.00 0.00 0.00 80 1013.1
20260905091722 25 144 0.0 0.0 0.00 0.00 0.00 80 1013.2
20260905091217 25 144 0.0 0.0 0.00 0.00 0.00 80 1012.9
20260905090716 25 144 0.0 0.0 0.00 0.00 0.00 81 1013.1
20260905090213 25 144 0.0 0.0 0.00 0.00 0.00 81 1012.9
20260905085711 25 144 0.0 0.0 0.00 0.00 0.00 81 1013.2
20260905085207 25 144 0.0 0.0 0.00 0.00 0.00 81 1012.9
20260905084706 25 144 0.0 0.0 0.00 0.00 0.00 82 1013.0
20260905084201 25 144 0.0 0.0 0.00 0.00 0.00 81 1013.1
20260905083701 25 144 0.0 0.0 0.00 0.00 0.00 82 1013.1
20260905083157 25 144 0.0 0.0 0.00 0.00 0.00 83 1013.0
20260905082653 24 144 0.0 0.0 0.00 0.00 0.00 85 1013.1
20260905082148 24 144 0.0 0.0 0.00 0.00 0.00 86 1013.1
20260905081643 23 144 0.0 0.0 0.00 0.00 0.00 87 1013.1
20260905081138 24 144 0.0 0.0 0.00 0.00 0.00 87 1013.0
20260905080633 24 144 0.0 0.0 0.00 0.00 0.00 87 1013.3
20260905080132 24 144 0.0 0.0 0.00 0.00 0.00 87 1013.2
20260905075632 23 144 0.0 0.0 0.00 0.00 0.00 88 1013.1
20260905075131 23 144 0.0 0.0 0.00 0.00 0.00 90 1013.3
20260905074630 23 144 0.0 0.0 0.00 0.00 0.00 91 1013.1
20260905074126 23 144 0.0 0.0 0.00 0.00 0.00 91 1013.3
20260905073622 23 144 0.0 0.0 0.00 0.00 0.00 91 1013.3
20260905073117 23 144 0.0 0.0 0.00 0.00 0.00 91 1013.2
20260905072616 23 144 0.0 0.0 0.00 0.00 0.00 90 1013.3
20260905072112 23 144 0.0 0.0 0.00 0.00 0.00 90 1013.4
20260905071609 23 144 0.0 0.0 0.00 0.00 0.00 89 1013.5
20260905071109 23 144 0.0 0.0 0.00 0.00 0.00 89 1013.5
20260905070604 23 144 0.0 0.0 0.00 0.00 0.00 89 1013.4
20260905070100 23 144 0.0 0.0 0.00 0.00 0.00 90 1013.4
20260905065557 23 145 0.0 0.0 0.00 0.00 0.00 91 1013.3
20260905065053 23 145 0.0 0.0 0.00 0.00 0.00 90 1013.4
20260905064553 23 145 0.0 0.0 0.00 0.00 0.00 90 1013.3
20260905064048 23 145 0.0 0.0 0.00 0.00 0.00 89 1013.2
20260905063547 23 145 0.0 0.0 0.00 0.00 0.00 89 1013.4
20260905063044 23 145 0.0 0.0 0.00 0.00 0.00 88 1013.2
20260905062539 24 145 0.0 0.0 0.00 0.00 0.00 88 1013.3
20260905062038 24 145 0.0 0.0 0.00 0.00 0.00 87 1013.6
20260905061534 24 145 0.0 0.0 0.00 0.00 0.00 87 1013.5
20260905061033 24 145 0.0 0.0 0.00 0.00 0.00 87 1013.6
20260905060529 24 145 0.0 0.0 0.00 0.00 0.00 88 1013.6
20260905060025 24 145 0.0 0.0 0.00 0.00 0.00 88 1013.7
20260905055523 24 145 0.0 0.0 0.00 0.00 0.00 87 1013.6
20260905055018 24 145 0.0 0.0 0.00 0.00 0.00 87 1013.7
20260905054514 25 145 0.0 0.0 0.00 0.00 0.00 86 1013.6
20260905054009 25 145 0.0 0.0 0.00 0.00 0.00 86 1013.6
20260905053503 25 145 0.0 0.0 0.00 0.00 0.00 86 1013.7
20260905052959 25 145 0.0 0.0 0.00 0.00 0.00 87 1013.8
20260905052458 24 145 0.0 0.0 0.00 0.00 0.00 88 1013.9
20260905051958 24 145 1.6 1.6 0.00 0.00 0.00 88 1013.5
20260905051453 24 145 0.0 0.0 0.00 0.00 0.00 88 1013.5
20260905050951 24 145 0.0 0.0 0.00 0.00 0.00 89 1013.6
20260905050446 24 145 0.0 0.0 0.00 0.00 0.00 88 1013.7
20260905045942 25 145 0.0 0.0 0.00 0.00 0.00 87 1013.8
20260905045437 25 145 0.0 0.0 0.00 0.00 0.00 86 1013.6
20260905044933 25 145 0.0 0.0 0.00 0.00 0.00 86 1013.8
20260905044427 25 145 0.0 0.0 0.00 0.00 0.00 85 1013.9
20260905043927 25 145 0.0 0.0 0.00 0.00 0.00 84 1013.7
20260905043426 25 145 0.0 0.0 0.00 0.00 0.00 84 1013.8
20260905042921 25 145 0.0 0.0 0.00 0.00 0.00 85 1013.8
20260905042416 25 145 0.0 0.0 0.00 0.00 0.00 85 1013.9
20260905041910 25 145 0.0 0.0 0.00 0.00 0.00 85 1013.9
20260905041407 25 145 0.0 0.0 0.00 0.00 0.00 85 1013.7
20260905040901 25 145 0.0 0.0 0.00 0.00 0.00 84 1013.7
20260905040401 25 145 0.0 0.0 0.00 0.00 0.00 85 1013.8
20260905035900 25 145 0.0 0.0 0.00 0.00 0.00 84 1013.8
20260905035355 25 145 0.0 0.0 0.00 0.00 0.00 83 1013.7
20260905034852 25 145 0.0 0.0 0.00 0.00 0.00 82 1013.8
20260905034348 26 145 0.0 0.0 0.00 0.00 0.00 81 1013.6
20260905033846 26 145 0.0 0.0 0.00 0.00 0.00 82 1013.7
20260905033342 25 145 0.0 0.0 0.00 0.00 0.00 82 1013.7
20260905032840 25 145 0.0 0.0 0.00 0.00 0.00 83 1013.5
20260905032336 26 145 0.0 0.0 0.00 0.00 0.00 83 1013.6
20260905031831 26 145 0.0 0.0 0.00 0.00 0.00 82 1013.7
20260905031327 26 145 0.0 0.0 0.00 0.00 0.00 82 1013.7
20260905030822 26 145 0.0 0.0 0.00 0.00 0.00 82 1013.6
20260905030318 26 145 0.0 0.0 0.00 0.00 0.00 83 1013.8
20260905025817 26 145 0.0 0.0 0.00 0.00 0.00 82 1013.4
20260905025312 26 145 0.0 0.0 0.00 0.00 0.00 83 1013.6
20260905024809 26 145 0.0 0.0 0.00 0.00 0.00 83 1013.7
20260905024304 26 145 0.0 0.0 0.00 0.00 0.00 82 1013.8
20260905023759 26 145 0.0 0.0 0.00 0.00 0.00 81 1013.8
20260905023254 26 145 0.0 0.0 0.00 0.00 0.00 79 1013.6
20260905022753 26 145 0.0 0.0 0.00 0.00 0.00 78 1013.7
20260905022249 26 145 0.0 0.0 0.00 0.00 0.00 78 1013.6
20260905021749 26 145 0.0 0.0 0.00 0.00 0.00 77 1013.5
20260905021244 26 145 0.0 0.0 0.00 0.00 0.00 78 1013.7
20260905020744 27 145 0.0 0.0 0.00 0.00 0.00 78 1013.5
20260905020239 27 145 0.0 0.0 0.00 0.00 0.00 78 1013.4
20260905015738 27 145 0.0 0.0 0.00 0.00 0.00 79 1013.1
20260905015232 27 145 0.0 0.0 0.00 0.00 0.00 78 1013.5
20260905014731 27 145 0.0 0.0 0.00 0.00 0.00 77 1013.4
20260905014227 27 145 0.0 0.0 0.00 0.00 0.00 76 1013.4
20260905013722 27 145 0.0 0.0 0.00 0.00 0.00 75 1013.1
20260905013218 28 145 0.0 0.0 0.00 0.00 0.00 74 1013.3
20260905012714 28 145 0.0 0.0 0.00 0.00 0.00 74 1012.9
20260905012209 28 145 0.0 0.0 0.00 0.00 0.00 73 1012.9
20260905011706 28 145 0.0 0.0 0.00 0.00 0.00 73 1013.1
20260905011201 28 145 0.0 0.0 0.00 0.00 0.00 71 1013.2
20260905010701 28 145 0.0 0.0 0.00 0.00 0.00 71 1013.0
20260905010157 28 145 0.0 0.0 0.00 0.00 0.00 71 1013.0
20260905005654 29 145 0.0 0.0 0.00 0.00 0.00 70 1012.9
20260905005149 29 145 0.0 0.0 0.00 0.00 0.00 68 1012.7
20260905004643 30 145 1.6 0.0 0.00 0.00 0.00 67 1012.7
20260905004138 30 145 0.0 0.0 0.00 0.00 0.00 67 1012.6
20260905003634 30 145 0.0 0.0 0.00 0.00 0.00 65 1012.8
20260905003129 30 145 0.0 0.0 0.00 0.00 0.00 64 1012.9
20260905002625 31 145 0.0 0.0 0.00 0.00 0.00 64 1012.8
20260905002120 31 145 0.0 0.0 0.00 0.00 0.00 62 1012.9
20260905001615 31 145 0.0 0.0 0.00 0.00 0.00 61 1012.5
20260905001114 32 145 0.0 0.0 0.00 0.00 0.00 59 1012.6
20260905000610 32 145 1.6 1.6 0.00 0.00 0.00 56 1012.6
20260905000106 33 145 0.0 0.0 0.00 0.00 0.00 51 1012.5
20260904235606 34 145 0.0 0.0 0.00 0.00 0.00 49 1012.5
20260904235105 35 145 0.0 0.0 0.00 0.00 0.00 46 1012.5
20260904234600 36 144 0.0 0.0 0.00 0.00 0.00 47 1012.6
20260904234056 36 144 0.0 0.0 0.00 0.00 0.00 45 1012.8
20260904233556 36 144 0.0 0.0 0.00 0.00 0.00 44 1012.6
20260904233052 37 144 1.6 1.6 0.00 0.00 0.00 41 1012.9
20260904232548 37 144 0.0 0.0 0.00 0.00 0.00 41 1012.6
20260904232045 37 142 0.0 0.0 0.00 0.00 0.00 40 1012.5
20260904231540 37 143 0.0 0.0 0.00 0.00 0.00 39 1012.5
20260904231035 37 143 1.6 1.6 0.00 0.00 0.00 39 1012.5
20260904230534 37 162 3.2 1.6 0.00 0.00 0.00 38 1012.4
20260904230030 37 49 1.6 3.2 0.00 0.00 0.00 38 1012.4
20260904225527 37 135 1.6 1.6 0.00 0.00 0.00 40 1012.4
20260904225027 37 146 1.6 1.6 0.00 0.00 0.00 39 1012.3